Year,Month,Day,Hour,Minute,Value (Times are PST for windspeed in km/hr)
2016,03,13,00,00,0.00
2016,03,13,00,01,0.00
2016,03,13,00,02,0.00
2016,03,13,00,03,0.40
2016,03,13,00,04,0.20
2016,03,13,00,05,0.00
2016,03,13,00,06,0.10
2016,03,13,00,07,0.00
2016,03,13,00,08,0.00
2016,03,13,00,09,0.00
2016,03,13,00,10,0.00
2016,03,13,00,11,0.00
2016,03,13,00,12,0.00
2016,03,13,00,13,0.00
2016,03,13,00,14,0.10
2016,03,13,00,15,0.50
2016,03,13,00,16,0.60
2016,03,13,00,17,0.60
2016,03,13,00,18,0.10
2016,03,13,00,19,0.10
2016,03,13,00,20,0.00
2016,03,13,00,21,0.00
2016,03,13,00,22,0.00
2016,03,13,00,23,0.00
2016,03,13,00,24,0.00
2016,03,13,00,25,0.00
2016,03,13,00,26,0.00
2016,03,13,00,27,0.00
2016,03,13,00,28,0.00
2016,03,13,00,29,0.00
2016,03,13,00,30,0.00
2016,03,13,00,31,0.00
2016,03,13,00,32,0.00
2016,03,13,00,33,0.00
2016,03,13,00,34,0.00
2016,03,13,00,35,0.00
2016,03,13,00,36,0.00
2016,03,13,00,37,0.00
2016,03,13,00,38,0.00
2016,03,13,00,39,0.00
2016,03,13,00,40,0.00
2016,03,13,00,41,0.00
2016,03,13,00,42,0.00
2016,03,13,00,43,0.00
2016,03,13,00,44,0.00
2016,03,13,00,45,0.00
2016,03,13,00,46,0.00
2016,03,13,00,47,0.00
2016,03,13,00,48,0.00
2016,03,13,00,49,0.00
2016,03,13,00,50,0.00
2016,03,13,00,51,0.00
2016,03,13,00,52,0.00
2016,03,13,00,53,0.00
2016,03,13,00,54,0.00
2016,03,13,00,55,0.00
2016,03,13,00,56,0.00
2016,03,13,00,57,0.00
2016,03,13,00,58,0.00
2016,03,13,00,59,0.00
2016,03,13,01,00,0.00
2016,03,13,01,01,0.00
2016,03,13,01,02,0.00
2016,03,13,01,03,0.00
2016,03,13,01,04,0.00
2016,03,13,01,05,0.00
2016,03,13,01,06,0.00
2016,03,13,01,07,0.00
2016,03,13,01,08,0.00
2016,03,13,01,09,0.00
2016,03,13,01,10,0.00
2016,03,13,01,11,0.00
2016,03,13,01,12,0.00
2016,03,13,01,13,0.00
2016,03,13,01,14,0.00
2016,03,13,01,15,0.00
2016,03,13,01,16,0.00
2016,03,13,01,17,0.00
2016,03,13,01,18,0.00
2016,03,13,01,19,0.00
2016,03,13,01,20,0.00
2016,03,13,01,21,0.00
2016,03,13,01,22,0.00
2016,03,13,01,23,0.00
2016,03,13,01,24,0.00
2016,03,13,01,25,0.00
2016,03,13,01,26,0.00
2016,03,13,01,27,0.00
2016,03,13,01,28,0.00
2016,03,13,01,29,0.00
2016,03,13,01,30,0.00
2016,03,13,01,31,0.00
2016,03,13,01,32,0.00
2016,03,13,01,33,0.00
2016,03,13,01,34,0.00
2016,03,13,01,35,0.00
2016,03,13,01,36,0.00
2016,03,13,01,37,0.00
2016,03,13,01,38,0.00
2016,03,13,01,39,0.00
2016,03,13,01,40,0.60
2016,03,13,01,41,1.70
2016,03,13,01,42,0.00
2016,03,13,01,43,0.00
2016,03,13,01,44,0.00
2016,03,13,01,45,0.00
2016,03,13,01,46,0.00
2016,03,13,01,47,0.00
2016,03,13,01,48,0.00
2016,03,13,01,49,0.00
2016,03,13,01,50,0.00
2016,03,13,01,51,0.00
2016,03,13,01,52,0.00
2016,03,13,01,53,0.00
2016,03,13,01,54,0.00
2016,03,13,01,55,0.00
2016,03,13,01,56,0.00
2016,03,13,01,57,0.00
2016,03,13,01,58,0.00
2016,03,13,01,59,0.00
2016,03,13,03,00,0.00
2016,03,13,03,01,0.00
2016,03,13,03,02,0.00
2016,03,13,03,03,0.00
2016,03,13,03,04,0.00
2016,03,13,03,05,0.00
2016,03,13,03,06,0.00
2016,03,13,03,07,0.00
2016,03,13,03,08,0.00
2016,03,13,03,09,0.00
2016,03,13,03,10,0.00
2016,03,13,03,11,0.00
2016,03,13,03,12,0.00
2016,03,13,03,13,0.00
2016,03,13,03,14,0.00
2016,03,13,03,15,0.00
2016,03,13,03,16,0.00
2016,03,13,03,17,0.00
2016,03,13,03,18,0.00
2016,03,13,03,19,0.00
2016,03,13,03,20,0.00
2016,03,13,03,21,0.00
2016,03,13,03,22,0.00
2016,03,13,03,23,0.00
2016,03,13,03,24,0.00
2016,03,13,03,25,0.00
2016,03,13,03,26,0.00
2016,03,13,03,27,0.00
2016,03,13,03,28,0.00
2016,03,13,03,29,0.00
2016,03,13,03,30,0.00
2016,03,13,03,31,0.00
2016,03,13,03,32,0.00
2016,03,13,03,33,0.00
2016,03,13,03,34,0.00
2016,03,13,03,35,0.00
2016,03,13,03,36,0.00
2016,03,13,03,37,0.00
2016,03,13,03,38,0.00
2016,03,13,03,39,0.00
2016,03,13,03,40,0.00
2016,03,13,03,41,0.00
2016,03,13,03,42,0.00
2016,03,13,03,43,0.00
2016,03,13,03,44,0.00
2016,03,13,03,45,0.00
2016,03,13,03,46,0.00
2016,03,13,03,47,0.10
2016,03,13,03,48,0.80
2016,03,13,03,49,0.10
2016,03,13,03,50,0.00
2016,03,13,03,51,0.00
2016,03,13,03,52,0.00
2016,03,13,03,53,0.00
2016,03,13,03,54,0.00
2016,03,13,03,55,0.00
2016,03,13,03,56,0.00
2016,03,13,03,57,0.00
2016,03,13,03,58,0.00
2016,03,13,03,59,0.00
2016,03,13,04,00,0.00
2016,03,13,04,01,0.00
2016,03,13,04,02,0.00
2016,03,13,04,03,0.00
2016,03,13,04,04,0.00
2016,03,13,04,05,0.00
2016,03,13,04,06,0.00
2016,03,13,04,07,0.00
2016,03,13,04,08,0.00
2016,03,13,04,09,0.00
2016,03,13,04,10,0.00
2016,03,13,04,11,0.00
2016,03,13,04,12,0.00
2016,03,13,04,13,0.00
2016,03,13,04,14,0.00
2016,03,13,04,15,0.00
2016,03,13,04,16,0.00
2016,03,13,04,17,0.00
2016,03,13,04,18,0.00
2016,03,13,04,19,0.00
2016,03,13,04,20,0.10
2016,03,13,04,21,0.10
2016,03,13,04,22,0.40
2016,03,13,04,23,0.20
2016,03,13,04,24,0.50
2016,03,13,04,25,0.00
2016,03,13,04,26,1.00
2016,03,13,04,27,2.10
2016,03,13,04,28,0.00
2016,03,13,04,29,0.00
2016,03,13,04,30,0.00
2016,03,13,04,31,0.00
2016,03,13,04,32,0.00
2016,03,13,04,33,0.00
2016,03,13,04,34,0.00
2016,03,13,04,35,0.00
2016,03,13,04,36,0.20
2016,03,13,04,37,0.00
2016,03,13,04,38,0.00
2016,03,13,04,39,0.10
2016,03,13,04,40,0.30
2016,03,13,04,41,0.00
2016,03,13,04,42,0.00
2016,03,13,04,43,0.70
2016,03,13,04,44,0.30
2016,03,13,04,45,5.70
2016,03,13,04,46,6.50
2016,03,13,04,47,3.80
2016,03,13,04,48,3.10
2016,03,13,04,49,4.60
2016,03,13,04,50,1.40
2016,03,13,04,51,0.80
2016,03,13,04,52,4.10
2016,03,13,04,53,3.20
2016,03,13,04,54,3.40
2016,03,13,04,55,5.00
2016,03,13,04,56,1.10
2016,03,13,04,57,3.10
2016,03,13,04,58,5.50
2016,03,13,04,59,7.70
2016,03,13,05,00,5.10
2016,03,13,05,01,4.90
2016,03,13,05,02,8.80
2016,03,13,05,03,3.50
2016,03,13,05,04,4.30
2016,03,13,05,05,9.00
2016,03,13,05,06,3.90
2016,03,13,05,07,4.30
2016,03,13,05,08,8.40
2016,03,13,05,09,1.40
2016,03,13,05,10,1.50
2016,03,13,05,11,3.70
2016,03,13,05,12,4.30
2016,03,13,05,13,3.80
2016,03,13,05,14,6.60
2016,03,13,05,15,4.40
2016,03,13,05,16,7.40
2016,03,13,05,17,8.80
2016,03,13,05,18,9.50
2016,03,13,05,19,1.00
2016,03,13,05,20,4.40
2016,03,13,05,21,5.20
2016,03,13,05,22,8.10
2016,03,13,05,23,1.90
2016,03,13,05,24,8.00
2016,03,13,05,25,8.10
2016,03,13,05,26,6.00
2016,03,13,05,27,7.20
2016,03,13,05,28,4.10
2016,03,13,05,29,3.40
2016,03,13,05,30,0.80
2016,03,13,05,31,1.50
2016,03,13,05,32,2.80
2016,03,13,05,33,0.20
2016,03,13,05,34,2.90
2016,03,13,05,35,1.30
2016,03,13,05,36,0.60
2016,03,13,05,37,3.80
2016,03,13,05,38,5.40
2016,03,13,05,39,5.60
2016,03,13,05,40,9.20
2016,03,13,05,41,0.60
2016,03,13,05,42,1.90
2016,03,13,05,43,2.20
2016,03,13,05,44,2.70
2016,03,13,05,45,3.00
2016,03,13,05,46,0.20
2016,03,13,05,47,2.40
2016,03,13,05,48,0.00
2016,03,13,05,49,0.10
2016,03,13,05,50,1.00
2016,03,13,05,51,2.30
2016,03,13,05,52,3.30
2016,03,13,05,53,11.20
2016,03,13,05,54,12.20
2016,03,13,05,55,6.40
2016,03,13,05,56,7.30
2016,03,13,05,57,7.30
2016,03,13,05,58,9.10
2016,03,13,05,59,3.90
2016,03,13,06,00,3.50
2016,03,13,06,01,3.80
2016,03,13,06,02,4.40
2016,03,13,06,03,7.50
2016,03,13,06,04,7.60
2016,03,13,06,05,10.50
2016,03,13,06,06,6.70
2016,03,13,06,07,6.90
2016,03,13,06,08,6.00
2016,03,13,06,09,5.80
2016,03,13,06,10,9.70
2016,03,13,06,11,8.40
2016,03,13,06,12,13.20
2016,03,13,06,13,7.30
2016,03,13,06,14,7.70
2016,03,13,06,15,1.00
2016,03,13,06,16,0.30
2016,03,13,06,17,8.10
2016,03,13,06,18,9.60
2016,03,13,06,19,6.70
2016,03,13,06,20,4.00
2016,03,13,06,21,7.60
2016,03,13,06,22,0.90
2016,03,13,06,23,1.10
2016,03,13,06,24,0.60
2016,03,13,06,25,0.60
2016,03,13,06,26,11.10
2016,03,13,06,27,5.10
2016,03,13,06,28,3.10
2016,03,13,06,29,8.10
2016,03,13,06,30,9.30
2016,03,13,06,31,8.70
2016,03,13,06,32,6.80
2016,03,13,06,33,5.00
2016,03,13,06,34,6.80
2016,03,13,06,35,9.30
2016,03,13,06,36,5.80
2016,03,13,06,37,9.90
2016,03,13,06,38,4.30
2016,03,13,06,39,2.10
2016,03,13,06,40,3.00
2016,03,13,06,41,3.10
2016,03,13,06,42,6.90
2016,03,13,06,43,8.30
2016,03,13,06,44,7.40
2016,03,13,06,45,4.40
2016,03,13,06,46,6.60
2016,03,13,06,47,5.20
2016,03,13,06,48,4.80
2016,03,13,06,49,9.30
2016,03,13,06,50,7.20
2016,03,13,06,51,9.00
2016,03,13,06,52,9.90
2016,03,13,06,53,5.60
2016,03,13,06,54,6.40
2016,03,13,06,55,3.90
2016,03,13,06,56,4.40
2016,03,13,06,57,1.20
2016,03,13,06,58,0.60
2016,03,13,06,59,2.30
2016,03,13,07,00,3.50
2016,03,13,07,01,1.10
2016,03,13,07,02,1.20
2016,03,13,07,03,4.50
2016,03,13,07,04,7.70
2016,03,13,07,05,11.90
2016,03,13,07,06,8.90
2016,03,13,07,07,12.00
2016,03,13,07,08,10.20
2016,03,13,07,09,12.90
2016,03,13,07,10,9.60
2016,03,13,07,11,3.10
2016,03,13,07,12,8.10
2016,03,13,07,13,6.80
2016,03,13,07,14,2.50
2016,03,13,07,15,0.70
2016,03,13,07,16,0.20
2016,03,13,07,17,3.00
2016,03,13,07,18,6.80
2016,03,13,07,19,11.10
2016,03,13,07,20,2.00
2016,03,13,07,21,5.60
2016,03,13,07,22,3.40
2016,03,13,07,23,1.20
2016,03,13,07,24,9.70
2016,03,13,07,25,9.70
2016,03,13,07,26,6.60
2016,03,13,07,27,9.80
2016,03,13,07,28,6.80
2016,03,13,07,29,2.60
2016,03,13,07,30,2.40
2016,03,13,07,31,8.90
2016,03,13,07,32,9.80
2016,03,13,07,33,5.80
2016,03,13,07,34,6.10
2016,03,13,07,35,3.80
2016,03,13,07,36,1.10
2016,03,13,07,37,4.80
2016,03,13,07,38,5.90
2016,03,13,07,39,5.50
2016,03,13,07,40,7.50
2016,03,13,07,41,2.90
2016,03,13,07,42,0.00
2016,03,13,07,43,2.70
2016,03,13,07,44,2.80
2016,03,13,07,45,2.80
2016,03,13,07,46,0.20
2016,03,13,07,47,1.70
2016,03,13,07,48,3.10
2016,03,13,07,49,1.00
2016,03,13,07,50,3.50
2016,03,13,07,51,2.20
2016,03,13,07,52,9.70
2016,03,13,07,53,6.10
2016,03,13,07,54,4.30
2016,03,13,07,55,7.20
2016,03,13,07,56,4.30
2016,03,13,07,57,1.20
2016,03,13,07,58,8.00
2016,03,13,07,59,7.40
2016,03,13,08,00,2.80
2016,03,13,08,01,6.30
2016,03,13,08,02,1.20
2016,03,13,08,03,7.70
2016,03,13,08,04,10.90
2016,03,13,08,05,4.50
2016,03,13,08,06,1.80
2016,03,13,08,07,6.90
2016,03,13,08,08,4.90
2016,03,13,08,09,1.80
2016,03,13,08,10,1.80
2016,03,13,08,11,0.00
2016,03,13,08,12,0.80
2016,03,13,08,13,2.40
2016,03,13,08,14,6.00
2016,03,13,08,15,10.00
2016,03,13,08,16,5.50
2016,03,13,08,17,8.90
2016,03,13,08,18,11.90
2016,03,13,08,19,8.00
2016,03,13,08,20,6.90
2016,03,13,08,21,3.50
2016,03,13,08,22,1.30
2016,03,13,08,23,1.00
2016,03,13,08,24,4.30
2016,03,13,08,25,7.80
2016,03,13,08,26,6.00
2016,03,13,08,27,5.30
2016,03,13,08,28,5.60
2016,03,13,08,29,1.70
2016,03,13,08,30,3.10
2016,03,13,08,31,3.00
2016,03,13,08,32,2.80
2016,03,13,08,33,3.20
2016,03,13,08,34,7.40
2016,03,13,08,35,8.10
2016,03,13,08,36,4.10
2016,03,13,08,37,2.70
2016,03,13,08,38,7.30
2016,03,13,08,39,4.20
2016,03,13,08,40,2.40
2016,03,13,08,41,10.20
2016,03,13,08,42,11.30
2016,03,13,08,43,7.20
2016,03,13,08,44,6.00
2016,03,13,08,45,3.90
2016,03,13,08,46,5.40
2016,03,13,08,47,4.30
2016,03,13,08,48,5.60
2016,03,13,08,49,6.40
2016,03,13,08,50,3.90
2016,03,13,08,51,6.20
2016,03,13,08,52,7.70
2016,03,13,08,53,5.60
2016,03,13,08,54,3.90
2016,03,13,08,55,3.20
2016,03,13,08,56,5.70
2016,03,13,08,57,7.60
2016,03,13,08,58,8.00
2016,03,13,08,59,6.20
2016,03,13,09,00,5.70
2016,03,13,09,01,3.30
2016,03,13,09,02,0.80
2016,03,13,09,03,2.30
2016,03,13,09,04,2.60
2016,03,13,09,05,1.20
2016,03,13,09,06,4.10
2016,03,13,09,07,8.20
2016,03,13,09,08,4.90
2016,03,13,09,09,3.00
2016,03,13,09,10,2.00
2016,03,13,09,11,5.60
2016,03,13,09,12,4.20
2016,03,13,09,13,1.70
2016,03,13,09,14,1.30
2016,03,13,09,15,2.10
2016,03,13,09,16,3.40
2016,03,13,09,17,4.20
2016,03,13,09,18,3.80
2016,03,13,09,19,1.80
2016,03,13,09,20,5.70
2016,03,13,09,21,3.10
2016,03,13,09,22,1.10
2016,03,13,09,23,1.50
2016,03,13,09,24,0.30
2016,03,13,09,25,0.10
2016,03,13,09,26,3.00
2016,03,13,09,27,0.30
2016,03,13,09,28,0.60
2016,03,13,09,29,5.00
2016,03,13,09,30,1.60
2016,03,13,09,31,1.50
2016,03,13,09,32,1.90
2016,03,13,09,33,2.70
2016,03,13,09,34,3.70
2016,03,13,09,35,5.90
2016,03,13,09,36,4.30
2016,03,13,09,37,5.80
2016,03,13,09,38,3.60
2016,03,13,09,39,9.30
2016,03,13,09,40,1.80
2016,03,13,09,41,0.20
2016,03,13,09,42,1.50
2016,03,13,09,43,2.60
2016,03,13,09,44,3.60
2016,03,13,09,45,0.20
2016,03,13,09,46,6.80
2016,03,13,09,47,6.60
2016,03,13,09,48,3.90
2016,03,13,09,49,7.20
2016,03,13,09,50,6.60
2016,03,13,09,51,1.50
2016,03,13,09,52,2.70
2016,03,13,09,53,3.10
2016,03,13,09,54,1.10
2016,03,13,09,55,0.80
2016,03,13,09,56,8.70
2016,03,13,09,57,2.00
2016,03,13,09,58,0.70
2016,03,13,09,59,2.40
2016,03,13,10,00,3.40
2016,03,13,10,01,3.90
2016,03,13,10,02,6.60
2016,03,13,10,03,1.40
2016,03,13,10,04,3.20
2016,03,13,10,05,3.10
2016,03,13,10,06,6.00
2016,03,13,10,07,0.60
2016,03,13,10,08,3.70
2016,03,13,10,09,4.80
2016,03,13,10,10,10.50
2016,03,13,10,11,3.20
2016,03,13,10,12,5.10
2016,03,13,10,13,3.50
2016,03,13,10,14,2.30
2016,03,13,10,15,2.60
2016,03,13,10,16,6.50
2016,03,13,10,17,3.50
2016,03,13,10,18,5.70
2016,03,13,10,19,6.60
2016,03,13,10,20,2.90
2016,03,13,10,21,6.00
2016,03,13,10,22,6.70
2016,03,13,10,23,6.10
2016,03,13,10,24,3.10
2016,03,13,10,25,0.20
2016,03,13,10,26,4.70
2016,03,13,10,27,3.50
2016,03,13,10,28,3.80
2016,03,13,10,29,8.40
2016,03,13,10,30,3.40
2016,03,13,10,31,1.30
2016,03,13,10,32,0.90
2016,03,13,10,33,2.00
2016,03,13,10,34,2.70
2016,03,13,10,35,4.70
2016,03,13,10,36,2.00
2016,03,13,10,37,11.80
2016,03,13,10,38,7.30
2016,03,13,10,39,11.20
2016,03,13,10,40,8.50
2016,03,13,10,41,7.10
2016,03,13,10,42,7.50
2016,03,13,10,43,8.60
2016,03,13,10,44,9.10
2016,03,13,10,45,5.60
2016,03,13,10,46,3.00
2016,03,13,10,47,1.90
2016,03,13,10,48,2.30
2016,03,13,10,49,1.90
2016,03,13,10,50,4.20
2016,03,13,10,51,4.20
2016,03,13,10,52,3.50
2016,03,13,10,53,4.20
2016,03,13,10,54,4.20
2016,03,13,10,55,5.30
2016,03,13,10,56,4.60
2016,03,13,10,57,1.10
2016,03,13,10,58,5.30
2016,03,13,10,59,1.80
2016,03,13,11,00,8.20
2016,03,13,11,01,6.70
2016,03,13,11,02,6.60
2016,03,13,11,03,0.10
2016,03,13,11,04,0.60
2016,03,13,11,05,8.30
2016,03,13,11,06,5.10
2016,03,13,11,07,2.50
2016,03,13,11,08,3.50
2016,03,13,11,09,8.10
2016,03,13,11,10,6.80
2016,03,13,11,11,11.20
2016,03,13,11,12,4.50
2016,03,13,11,13,5.60
2016,03,13,11,14,13.40
2016,03,13,11,15,13.80
2016,03,13,11,16,3.50
2016,03,13,11,17,8.90
2016,03,13,11,18,7.70
2016,03,13,11,19,2.50
2016,03,13,11,20,5.20
2016,03,13,11,21,3.10
2016,03,13,11,22,3.20
2016,03,13,11,23,12.90
2016,03,13,11,24,10.80
2016,03,13,11,25,12.90
2016,03,13,11,26,6.10
2016,03,13,11,27,10.30
2016,03,13,11,28,12.40
2016,03,13,11,29,7.10
2016,03,13,11,30,8.30
2016,03,13,11,31,13.20
2016,03,13,11,32,6.70
2016,03,13,11,33,6.20
2016,03,13,11,34,1.30
2016,03,13,11,35,8.10
2016,03,13,11,36,11.50
2016,03,13,11,37,10.70
2016,03,13,11,38,5.70
2016,03,13,11,39,4.70
2016,03,13,11,40,3.10
2016,03,13,11,41,6.00
2016,03,13,11,42,2.40
2016,03,13,11,43,3.60
2016,03,13,11,44,3.20
2016,03,13,11,45,0.10
2016,03,13,11,46,1.70
2016,03,13,11,47,7.30
2016,03,13,11,48,7.10
2016,03,13,11,49,3.80
2016,03,13,11,50,3.50
2016,03,13,11,51,5.90
2016,03,13,11,52,5.70
2016,03,13,11,53,10.80
2016,03,13,11,54,13.70
2016,03,13,11,55,1.80
2016,03,13,11,56,10.60
2016,03,13,11,57,7.00
2016,03,13,11,58,4.90
2016,03,13,11,59,1.10
2016,03,13,12,00,0.90
2016,03,13,12,01,5.60
2016,03,13,12,02,10.20
2016,03,13,12,03,4.60
2016,03,13,12,04,6.60
2016,03,13,12,05,7.70
2016,03,13,12,06,6.40
2016,03,13,12,07,8.40
2016,03,13,12,08,5.30
2016,03,13,12,09,9.70
2016,03,13,12,10,4.30
2016,03,13,12,11,7.00
2016,03,13,12,12,2.20
2016,03,13,12,13,6.80
2016,03,13,12,14,3.80
2016,03,13,12,15,0.40
2016,03,13,12,16,0.50
2016,03,13,12,17,6.50
2016,03,13,12,18,5.20
2016,03,13,12,19,3.90
2016,03,13,12,20,8.90
2016,03,13,12,21,7.90
2016,03,13,12,22,7.50
2016,03,13,12,23,11.80
2016,03,13,12,24,5.90
2016,03,13,12,25,4.30
2016,03,13,12,26,10.50
2016,03,13,12,27,4.40
2016,03,13,12,28,7.00
2016,03,13,12,29,5.70
2016,03,13,12,30,10.10
2016,03,13,12,31,14.70
2016,03,13,12,32,11.20
2016,03,13,12,33,8.60
2016,03,13,12,34,7.80
2016,03,13,12,35,2.30
2016,03,13,12,36,3.50
2016,03,13,12,37,5.60
2016,03,13,12,38,10.80
2016,03,13,12,39,8.80
2016,03,13,12,40,8.70
2016,03,13,12,41,10.40
2016,03,13,12,42,8.90
2016,03,13,12,43,4.30
2016,03,13,12,44,12.80
2016,03,13,12,45,15.10
2016,03,13,12,46,17.00
2016,03,13,12,47,7.40
2016,03,13,12,48,5.40
2016,03,13,12,49,7.90
2016,03,13,12,50,11.70
2016,03,13,12,51,9.40
2016,03,13,12,52,10.40
2016,03,13,12,53,5.60
2016,03,13,12,54,7.20
2016,03,13,12,55,3.50
2016,03,13,12,56,7.60
2016,03,13,12,57,5.80
2016,03,13,12,58,7.00
2016,03,13,12,59,11.30
2016,03,13,13,00,2.50
2016,03,13,13,01,6.00
2016,03,13,13,02,8.50
2016,03,13,13,03,4.50
2016,03,13,13,04,7.80
2016,03,13,13,05,6.90
2016,03,13,13,06,3.90
2016,03,13,13,07,10.10
2016,03,13,13,08,8.70
2016,03,13,13,09,10.10
2016,03,13,13,10,4.90
2016,03,13,13,11,3.10
2016,03,13,13,12,5.10
2016,03,13,13,13,9.30
2016,03,13,13,14,5.80
2016,03,13,13,15,1.40
2016,03,13,13,16,3.40
2016,03,13,13,17,1.40
2016,03,13,13,18,1.50
2016,03,13,13,19,2.30
2016,03,13,13,20,7.50
2016,03,13,13,21,7.20
2016,03,13,13,22,9.90
2016,03,13,13,23,3.90
2016,03,13,13,24,4.20
2016,03,13,13,25,4.30
2016,03,13,13,26,8.40
2016,03,13,13,27,8.80
2016,03,13,13,28,7.20
2016,03,13,13,29,4.20
2016,03,13,13,30,9.10
2016,03,13,13,31,8.50
2016,03,13,13,32,11.00
2016,03,13,13,33,3.70
2016,03,13,13,34,5.40
2016,03,13,13,35,1.90
2016,03,13,13,36,1.90
2016,03,13,13,37,2.50
2016,03,13,13,38,3.10
2016,03,13,13,39,2.30
2016,03,13,13,40,3.10
2016,03,13,13,41,5.10
2016,03,13,13,42,10.00
2016,03,13,13,43,7.60
2016,03,13,13,44,4.30
2016,03,13,13,45,7.50
2016,03,13,13,46,4.50
2016,03,13,13,47,2.30
2016,03,13,13,48,3.50
2016,03,13,13,49,1.80
2016,03,13,13,50,4.30
2016,03,13,13,51,12.40
2016,03,13,13,52,7.60
2016,03,13,13,53,4.00
2016,03,13,13,54,1.90
2016,03,13,13,55,0.40
2016,03,13,13,56,3.10
2016,03,13,13,57,5.60
2016,03,13,13,58,1.80
2016,03,13,13,59,0.80
2016,03,13,14,00,0.60
2016,03,13,14,01,6.40
2016,03,13,14,02,6.50
2016,03,13,14,03,8.40
2016,03,13,14,04,8.10
2016,03,13,14,05,6.70
2016,03,13,14,06,5.30
2016,03,13,14,07,5.50
2016,03,13,14,08,1.90
2016,03,13,14,09,1.30
2016,03,13,14,10,3.50
2016,03,13,14,11,4.80
2016,03,13,14,12,12.50
2016,03,13,14,13,3.90
2016,03,13,14,14,1.40
2016,03,13,14,15,1.80
2016,03,13,14,16,2.30
2016,03,13,14,17,1.90
2016,03,13,14,18,5.20
2016,03,13,14,19,8.40
2016,03,13,14,20,11.90
2016,03,13,14,21,5.60
2016,03,13,14,22,2.30
2016,03,13,14,23,5.60
2016,03,13,14,24,4.20
2016,03,13,14,25,8.10
2016,03,13,14,26,5.10
2016,03,13,14,27,2.30
2016,03,13,14,28,9.20
2016,03,13,14,29,13.20
2016,03,13,14,30,13.30
2016,03,13,14,31,4.50
2016,03,13,14,32,9.30
2016,03,13,14,33,7.00
2016,03,13,14,34,2.60
2016,03,13,14,35,9.00
2016,03,13,14,36,7.20
2016,03,13,14,37,2.30
2016,03,13,14,38,6.40
2016,03,13,14,39,12.30
2016,03,13,14,40,12.30
2016,03,13,14,41,9.10
2016,03,13,14,42,3.80
2016,03,13,14,43,0.20
2016,03,13,14,44,1.40
2016,03,13,14,45,2.90
2016,03,13,14,46,11.20
2016,03,13,14,47,11.70
2016,03,13,14,48,7.30
2016,03,13,14,49,6.50
2016,03,13,14,50,9.50
2016,03,13,14,51,14.20
2016,03,13,14,52,6.60
2016,03,13,14,53,14.60
2016,03,13,14,54,11.30
2016,03,13,14,55,15.90
2016,03,13,14,56,6.80
2016,03,13,14,57,8.00
2016,03,13,14,58,18.20
2016,03,13,14,59,4.90
2016,03,13,15,00,2.20
2016,03,13,15,01,1.90
2016,03,13,15,02,5.80
2016,03,13,15,03,8.70
2016,03,13,15,04,9.00
2016,03,13,15,05,7.60
2016,03,13,15,06,4.20
2016,03,13,15,07,6.20
2016,03,13,15,08,2.50
2016,03,13,15,09,10.40
2016,03,13,15,10,1.20
2016,03,13,15,11,5.70
2016,03,13,15,12,3.60
2016,03,13,15,13,1.30
2016,03,13,15,14,4.30
2016,03,13,15,15,14.60
2016,03,13,15,16,5.80
2016,03,13,15,17,8.40
2016,03,13,15,18,10.40
2016,03,13,15,19,5.20
2016,03,13,15,20,6.00
2016,03,13,15,21,4.40
2016,03,13,15,22,0.60
2016,03,13,15,23,6.80
2016,03,13,15,24,9.80
2016,03,13,15,25,8.40
2016,03,13,15,26,6.10
2016,03,13,15,27,4.30
2016,03,13,15,28,4.30
2016,03,13,15,29,3.10
2016,03,13,15,30,2.30
2016,03,13,15,31,5.50
2016,03,13,15,32,7.80
2016,03,13,15,33,3.90
2016,03,13,15,34,6.20
2016,03,13,15,35,9.60
2016,03,13,15,36,9.30
2016,03,13,15,37,7.00
2016,03,13,15,38,10.80
2016,03,13,15,39,10.10
2016,03,13,15,40,9.40
2016,03,13,15,41,3.70
2016,03,13,15,42,3.50
2016,03,13,15,43,2.70
2016,03,13,15,44,2.00
2016,03,13,15,45,5.50
2016,03,13,15,46,3.80
2016,03,13,15,47,4.30
2016,03,13,15,48,1.10
2016,03,13,15,49,3.60
2016,03,13,15,50,3.70
2016,03,13,15,51,3.60
2016,03,13,15,52,4.50
2016,03,13,15,53,4.70
2016,03,13,15,54,5.80
2016,03,13,15,55,8.80
2016,03,13,15,56,6.30
2016,03,13,15,57,4.70
2016,03,13,15,58,4.00
2016,03,13,15,59,8.40
2016,03,13,16,00,5.60
2016,03,13,16,01,2.90
2016,03,13,16,02,4.50
2016,03,13,16,03,3.10
2016,03,13,16,04,3.40
2016,03,13,16,05,4.20
2016,03,13,16,06,8.60
2016,03,13,16,07,10.10
2016,03,13,16,08,10.10
2016,03,13,16,09,3.70
2016,03,13,16,10,0.20
2016,03,13,16,11,0.70
2016,03,13,16,12,1.50
2016,03,13,16,13,4.00
2016,03,13,16,14,2.20
2016,03,13,16,15,8.90
2016,03,13,16,16,7.20
2016,03,13,16,17,1.00
2016,03,13,16,18,8.00
2016,03,13,16,19,7.70
2016,03,13,16,20,6.40
2016,03,13,16,21,10.40
2016,03,13,16,22,4.30
2016,03,13,16,23,9.20
2016,03,13,16,24,8.30
2016,03,13,16,25,7.70
2016,03,13,16,26,5.80
2016,03,13,16,27,17.20
2016,03,13,16,28,12.30
2016,03,13,16,29,8.50
2016,03,13,16,30,13.80
2016,03,13,16,31,24.70
2016,03,13,16,32,17.70
2016,03,13,16,33,11.30
2016,03,13,16,34,15.60
2016,03,13,16,35,20.10
2016,03,13,16,36,13.90
2016,03,13,16,37,8.80
2016,03,13,16,38,9.90
2016,03,13,16,39,11.30
2016,03,13,16,40,17.20
2016,03,13,16,41,6.80
2016,03,13,16,42,9.90
2016,03,13,16,43,17.50
2016,03,13,16,44,10.70
2016,03,13,16,45,7.30
2016,03,13,16,46,3.40
2016,03,13,16,47,10.60
2016,03,13,16,48,14.70
2016,03,13,16,49,9.70
2016,03,13,16,50,4.50
2016,03,13,16,51,7.70
2016,03,13,16,52,13.10
2016,03,13,16,53,20.00
2016,03,13,16,54,24.30
2016,03,13,16,55,25.20
2016,03,13,16,56,18.30
2016,03,13,16,57,12.60
2016,03,13,16,58,20.80
2016,03,13,16,59,18.40
2016,03,13,17,00,15.80
2016,03,13,17,01,25.80
2016,03,13,17,02,26.40
2016,03,13,17,03,25.40
2016,03,13,17,04,31.30
2016,03,13,17,05,27.50
2016,03,13,17,06,28.80
2016,03,13,17,07,21.10
2016,03,13,17,08,11.70
2016,03,13,17,09,14.10
2016,03,13,17,10,14.10
2016,03,13,17,11,18.60
2016,03,13,17,12,19.80
2016,03,13,17,13,17.90
2016,03,13,17,14,16.30
2016,03,13,17,15,29.50
2016,03,13,17,16,39.90
2016,03,13,17,17,29.70
2016,03,13,17,18,28.00
2016,03,13,17,19,15.40
2016,03,13,17,20,30.50
2016,03,13,17,21,20.80
2016,03,13,17,22,20.70
2016,03,13,17,23,24.10
2016,03,13,17,24,24.30
2016,03,13,17,25,29.00
2016,03,13,17,26,20.40
2016,03,13,17,27,24.40
2016,03,13,17,28,22.80
2016,03,13,17,29,25.80
2016,03,13,17,30,20.80
2016,03,13,17,31,20.60
2016,03,13,17,32,27.20
2016,03,13,17,33,15.50
2016,03,13,17,34,22.10
2016,03,13,17,35,15.30
2016,03,13,17,36,17.10
2016,03,13,17,37,12.50
2016,03,13,17,38,25.80
2016,03,13,17,39,13.70
2016,03,13,17,40,14.80
2016,03,13,17,41,9.70
2016,03,13,17,42,15.00
2016,03,13,17,43,22.20
2016,03,13,17,44,17.50
2016,03,13,17,45,22.50
2016,03,13,17,46,15.30
2016,03,13,17,47,14.50
2016,03,13,17,48,14.00
2016,03,13,17,49,18.30
2016,03,13,17,50,20.30
2016,03,13,17,51,12.10
2016,03,13,17,52,12.20
2016,03,13,17,53,17.10
2016,03,13,17,54,13.60
2016,03,13,17,55,6.00
2016,03,13,17,56,10.80
2016,03,13,17,57,18.30
2016,03,13,17,58,24.90
2016,03,13,17,59,11.30
2016,03,13,18,00,8.30
2016,03,13,18,01,11.10
2016,03,13,18,02,9.70
2016,03,13,18,03,15.60
2016,03,13,18,04,7.60
2016,03,13,18,05,13.90
2016,03,13,18,06,13.00
2016,03,13,18,07,10.40
2016,03,13,18,08,16.80
2016,03,13,18,09,20.20
2016,03,13,18,10,19.70
2016,03,13,18,11,21.10
2016,03,13,18,12,16.00
2016,03,13,18,13,9.20
2016,03,13,18,14,9.00
2016,03,13,18,15,14.60
2016,03,13,18,16,12.90
2016,03,13,18,17,14.80
2016,03,13,18,18,17.10
2016,03,13,18,19,17.90
2016,03,13,18,20,16.20
2016,03,13,18,21,18.20
2016,03,13,18,22,13.40
2016,03,13,18,23,20.40
2016,03,13,18,24,12.50
2016,03,13,18,25,13.00
2016,03,13,18,26,20.00
2016,03,13,18,27,12.40
2016,03,13,18,28,10.90
2016,03,13,18,29,14.40
2016,03,13,18,30,15.20
2016,03,13,18,31,14.20
2016,03,13,18,32,14.70
2016,03,13,18,33,14.90
2016,03,13,18,34,30.40
2016,03,13,18,35,13.70
2016,03,13,18,36,19.40
2016,03,13,18,37,15.50
2016,03,13,18,38,23.90
2016,03,13,18,39,14.70
2016,03,13,18,40,15.10
2016,03,13,18,41,10.50
2016,03,13,18,42,6.60
2016,03,13,18,43,12.20
2016,03,13,18,44,6.00
2016,03,13,18,45,4.70
2016,03,13,18,46,21.70
2016,03,13,18,47,12.20
2016,03,13,18,48,11.80
2016,03,13,18,49,8.20
2016,03,13,18,50,4.90
2016,03,13,18,51,11.60
2016,03,13,18,52,18.70
2016,03,13,18,53,14.00
2016,03,13,18,54,8.10
2016,03,13,18,55,14.50
2016,03,13,18,56,5.60
2016,03,13,18,57,5.30